Regional Weather Roundup
Issued by NWS

Home | Current Version | Previous Version | Text Only | Print | Product List | Glossary On
Versions: 1 2 3 4 5 6 7 8 9 10 11 12 13 14 15 16 17 18 19 20 21 22 23 24 25 26 27 28 29 30 31 32 33 34 35 36 37 38 39 40 41 42 43 44 45 46 47 48 49 50
000
ASUS43 KMKX 201100
RWRWI

WISCONSIN REGIONAL WEATHER ROUNDUP
NATIONAL WEATHER SERVICE MILWAUKEE/SULLIVAN WI
600 AM CDT SUN APR 20 2014

NOTE: "FAIR" INDICATES FEW OR NO CLOUDS BELOW 12,000 FEET WITH NO
SIGNIFICANT WEATHER AND/OR OBSTRUCTIONS TO VISIBILITY.

WIZ001-002-006>008-014>016-023>028-201200-
NORTHWEST WISCONSIN

CITY           SKY/WX    TMP DP  RH WIND       PRES   REMARKS
SUPERIOR ARPT  CLEAR     26  26  98 SW3       30.05R FOG
ASHLAND        PTCLDY    36  36 100 W6        30.03R FOG     WCI  31
HAYWARD        CLOUDY    34  32  92 CALM      30.04R
SIREN          FOG       31  31  99 NW3       30.05R VSB 1/4
RICE LAKE      FOG       45  43  95 CALM      30.04S VSB<1/4
LADYSMITH      CLOUDY    47  46  95 SE3       30.05R
EAU CLAIRE     NOT AVBL
MENOMONIE      RAIN      49  47  93 CALM      30.02F
NEW RICHMOND   FOG       48  48 100 CALM      30.03R VSB 1/4
OSCEOLA        FOG       44  44 100 CALM      30.05R VSB<1/4
$$

WIZ003>005-009-010-017-018-201200-
NORTH CENTRAL WISCONSIN

CITY           SKY/WX    TMP DP  RH WIND       PRES   REMARKS
WOODRUFF       CLOUDY    45  39  79 S6        30.05R
RHINELANDER    CLOUDY    47  38  71 S6        30.05F
EAGLE RIVER    CLOUDY    42  41  95 CALM      30.04F
LAND O LAKES   CLOUDY    45  38  75 CALM      30.05F
PHILLIPS       CLOUDY    46  44  93 CALM      30.03S
TOMAHAWK       CLOUDY    46  40  77 CALM      30.05F
MEDFORD        CLOUDY    50  41  71 SE7       30.05F
MERRILL        CLOUDY    47  44  87 SE5G39    30.07F
$$

WIZ029-030-035-036-043>047-201200-
CENTRAL WISCONSIN

CITY           SKY/WX    TMP DP  RH WIND       PRES   REMARKS
WAUSAU         CLOUDY    49  42  77 S10       30.06F
MOSINEE        LGT RAIN  46  45  93 SE9       30.09F
MARSHFIELD     LGT RAIN  51  43  74 S8        30.07S
STEVENS POINT  CLOUDY    52  37  56 CALM      30.11R
WAUPACA        CLOUDY    54  39  58 SE5       30.12S
WAUTOMA        NOT AVBL
WISC RAPIDS    CLOUDY    55  37  50 S3        30.10S
CAMP DOUGLAS   NOT AVBL
$$

WIZ011>013-019>022-031-037>040-048>050-201200-
NORTHEAST WISCONSIN

CITY           SKY/WX    TMP DP  RH WIND       PRES   REMARKS
ANTIGO         RAIN      43  41  91 S8        30.10S
STURGEON BAY   CLOUDY    43  32  65 S15G21    30.16F
GREEN BAY      CLOUDY    50  41  71 S5        30.14F
MANITOWOC      NOT AVBL
APPLETON       CLOUDY    52  39  62 S10       30.14S
CLINTONVILLE   CLOUDY    52  37  58 S9        30.11S
OSHKOSH        CLOUDY    50  39  66 S12       30.14R
$$

WIZ032>034-041-042-053>061-201200-
SOUTHWEST WISCONSIN

CITY           SKY/WX    TMP DP  RH WIND       PRES   REMARKS
LA CROSSE      CLOUDY    61  38  42 S12       30.05S
SPARTA         CLOUDY    61  36  38 CALM      30.08S
VIROQUA        CLOUDY    58  40  51 S10       30.09S
BOSCOBEL       CLOUDY    61  39  44 SW3       30.10F
PRAIRIE DU CHI CLOUDY    62  38  40 S10G20    30.09S
PLATTEVILLE    MOCLDY    54  38  56 S10       30.14S
$$

WIZ056-057-062-063-064-067-068-201200-
SOUTH CENTRAL WISCONSIN

CITY           SKY/WX    TMP DP  RH WIND       PRES   REMARKS
BARABOO/DELLS  LGT RAIN  56  37  48 S8        30.12S
LONE ROCK      NOT AVBL
WATERTOWN      CLOUDY    51  38  60 S8        30.16R
MADISON        CLOUDY    54  38  54 S9        30.15R
MIDDLETON      CLOUDY    55  37  51 S8        30.15R
MONROE         CLOUDY    51  38  61 S15       30.15S
JANESVILLE     CLEAR     54  36  50 S9        30.17S
$$

WIZ051-052-058>065-066-070>072-201200-
SOUTHEAST WISCONSIN

CITY           SKY/WX    TMP DP  RH WIND       PRES   REMARKS
MILWAUKEE      MOCLDY    46  32  58 S7        30.19S
WAUKESHA       CLEAR     46  34  61 S7        30.18S
MILWAUKEE/TIMM PTCLDY    46  32  57 S8        30.18F
RACINE         CLEAR     45  34  65 S8        30.21S
BURLINGTON     CLEAR     46  36  68 S6        30.18S
KENOSHA        PTCLDY    45  35  68 S8        30.19R
FOND DU LAC    CLOUDY    53  38  56 S9        30.14S
SHEBOYGAN      CLOUDY    44  33  65 S3        30.18S
WEST BEND      CLOUDY    48  32  53 S3        30.17S
JUNEAU         CLOUDY    50  35  55 S8        30.17R
$$

LSZ147-162-201200-
LAKE SUPERIOR

STATION/POSITION TIME  TEMP    WIND        PRES    WAVE
                       AIR SEA DIR/SP/G            HT/PER
                 (UTC) (F)     (DEG/KT/KT) (MB)    (FT/S)
DEVILS ISLAND    1000   32     260/  8/  9 1017.7R
PORT WING        1000   28     160/  5/  5 1017.6
SAXON HARBOR     1000             CALM     1016.6R
$$

LMZ867-665-643>646-201200-
LAKE MICHIGAN

STATION/POSITION TIME  TEMP    WIND        PRES    WAVE
                       AIR SEA DIR/SP/G            HT/PER
                 (UTC) (F)     (DEG/KT/KT) (MB)    (FT/S)
NORTHPORT PIER   1000   40     160/ 10/ 20 1021.7R
SISTER BAY       1009   39     190/ 23/ 30   N/A
KEWAUNEE LAKESHO 1000   43     180/ 18/ 20 1022.3R
SHEBOYGAN LAKESH 1000   40     180/ 13/ 16 1022.9R
PORT WASHINGTON  1000   41     180/  7/ 11 1022.7S
MILWAUKEE LAKESH 1000   42     150/ 10/ 11   N/A
KENOSHA   LAKESH 1000   43     180/ 14/ 19   N/A
$$

TC  - TEMPERATURE IN CELSIUS
VSB - VISIBILITY IN STATUTE MILES
WCI - WIND CHILL INDEX
HX  - HEAT INDEX




USA.gov is the U.S. government's official web portal to all federal, state and local government web resources and services.